Location: Castelbiague
(43.0361°N, 0.9246°E)
Time: 14:15:30
(UTC+00:00)

Cosmos 2278 Rocket - Pass Details

Date: 17 June 2021
Orbit: 840 x 847 km, 71.0° (Epoch: 04 August)

Event Time Altitude Azimuth Distance (km) Brightness Sun altitude
Rises 21:52:57 0° 343° (NNW) 3,409 6.9 -17.7°
Reaches altitude 10° 21:55:47 10° 355° (N) 2,472 5.6 -17.9°
Maximum altitude 22:00:35 28° 53° (NE) 1,555 3.6 -18.3°
Enters shadow 22:03:56 16° 101° (E) 2,056 3.9 -18.6°
